Regional Weather Roundup
Issued by NWS

Home | Current Version | Previous Version | Text Only | Print | Product List | Glossary On
Versions: 1 2 3 4 5 6 7 8 9 10 11 12 13 14 15 16 17 18 19 20 21 22 23 24 25 26 27 28 29 30 31 32 33 34 35 36 37 38 39 40 41 42 43 44 45 46 47 48 49 50
000
ASUS44 KFWD 121415
RWRTX
NORTH TEXAS HOURLY WEATHER ROUNDUP
NATIONAL WEATHER SERVICE FORT WORTH TX
800 AM CST TUE DEC 12 2017

NOTE: "FAIR" INDICATES FEW OR NO CLOUDS BELOW 12,000 FEET WITH NO
SIGNIFICANT WEATHER AND/OR OBSTRUCTIONS TO VISIBILITY.

TXZ118-119-121500-
DALLAS/FORT WORTH METROPLEX

CITY           SKY/WX    TMP DP  RH WIND       PRES   REMARKS
DFW AIRPORT    CLEAR     44  29  55 N15       30.38R WCI  37
DALLAS LOVE    PTCLDY    45  30  55 N16G22    30.40R WCI  38
FTW MEACHAM    PTCLDY    44  29  55 N15       30.40R WCI  37
DAL-EXECUTIVE  CLEAR     45  30  55 N16G24    30.38R WCI  38
FTW-ALLIANCE   CLEAR     42  29  59 N13       30.40R WCI  35
FTW-NAS-JRB    PTCLDY    44  28  53 N14       30.41R WCI  37
FTW-SPINKS     CLEAR     43  28  56 N13       30.41R WCI  36
ARLINGTON      CLEAR     43  29  57 N13       30.40R WCI  36
ADDISON        CLEAR     43  28  56 N16G22    30.41R WCI  35
MESQUITE       CLEAR     43  30  61 NW8       30.40R WCI  38
LANCASTER      CLEAR     45  29  53 N17G25    30.39R WCI  37
$$

TXZ091>094-102>105-117-120-121-131>134-121500-
NORTH CENTRAL TEXAS

CITY           SKY/WX    TMP DP  RH WIND       PRES   REMARKS
SHRMAN/DENISON CLEAR     38  30  70 NW9       30.41R WCI  32
GAINESVILLE    CLOUDY    37  28  70 NW9       30.43R WCI  30
BOWIE          CLOUDY    34  28  76 NW7       30.42F WCI  28
BRIDGEPORT     CLEAR     42  29  61 N10G20    30.45R WCI  35
DENTON         CLOUDY    37  28  70 NW9       30.42R WCI  30
MCKINNEY       CLEAR     42  29  59 N9        30.39R WCI  37
BONHAM         CLEAR     38  27  63 NW7       30.38S WCI  33
GREENVILLE     CLEAR     45  32  61 NW10      30.38R WCI  39
ROCKWALL       CLEAR     43  31  61 MISG      30.39R
TERRELL        CLEAR     44  29  55 N8G18     30.39R WCI  39
WAXAHACHIE     CLEAR     44  31  62 N13       30.39R WCI  37
CLEBURNE       CLEAR     39  27  60 N12       30.41R WCI  32
GRANBURY       CLEAR     40  28  62 W3        30.44R
$$

TXZ083>090-098>101-113>116-127>130-139>142-154-155-121500-
WESTERN NORTH TEXAS

CITY           SKY/WX    TMP DP  RH WIND       PRES   REMARKS
WICHITA FALLS  CLOUDY    36  27  69 N12       30.44R WCI  28
WF-KICKAPOO    CLOUDY    40  28  60 N9        30.47R WCI  34
VERNON         CLOUDY    35  21  56 NW8       30.47S WCI  29
ABILENE        CLOUDY    33  20  58 NW5       30.46R WCI  29
ABILENE-DYESS  CLOUDY    33  18  53 NW5       30.46R WCI  28
GRAHAM           N/A     36  28  70 NW3       30.43R
BRECKENRIDGE   CLOUDY    39  25  55 N7        30.44S WCI  34
CISCO          CLOUDY    37  25  60 N6        30.44R WCI  33
EASTLAND       CLEAR     38  25  59 N8        30.43R WCI  32
RANGER         CLEAR     38  28  65 N7        30.43R WCI  33
MINERAL WELLS  CLEAR     39  27  62 NW8       30.42R WCI  33
STEPHENVILLE   CLEAR     41  27  57 N10G16    30.43R WCI  35
COMANCHE       CLOUDY    40  27  60 N9        30.44R WCI  34
BROWNWOOD      CLEAR     41  25  52 N6        30.44R WCI  37
COLEMAN        CLEAR     40  24  54 N6        30.45R WCI  35
$$

TXZ143>147-156>162-174-175-121500-
CENTRAL TEXAS

CITY           SKY/WX    TMP DP  RH WIND       PRES   REMARKS
WACO           CLEAR     46  27  47 NW12      30.39R
WACO-TSTC      CLEAR     45  28  53 NW9       30.39R WCI  40
WACO-MCGREGOR  CLEAR     42  28  57 N8        30.40R WCI  37
HILLSBORO      CLEAR     41  28  58 N8        30.38R WCI  36
CORSICANA      CLEAR     45  30  55 N10       30.38R WCI  40
MEXIA          CLEAR     44  27  51 N10       30.35R WCI  38
HEARNE         CLEAR     37  29  72 W6        30.38R WCI  33
CAMERON        CLEAR     44  29  57 NW5       30.37R
TEMPLE         CLEAR     43  26  51 N10       30.39R WCI  37
KILLEEN        CLEAR     42  24  50 NW9       30.38R HAZE    WCI  36
KILLEEN-SKYLRK CLEAR     45  25  45 N8        30.39R
FORT HOOD      CLEAR     44  25  47 N10       30.35R WCI  38
GATESVILLE     CLEAR     39  23  52 NW6       30.42R WCI  35
HAMILTON       CLEAR     40  27  59 NW9       30.42R WCI  34
LAMPASAS       CLEAR     43  25  49 N6        30.39R WCI  39
$$

TXZ095>097-106>112-122>126-135>138-148>153-164>167-121500-
EAST TEXAS

CITY           SKY/WX    TMP DP  RH WIND       PRES   REMARKS
PARIS          CLEAR     40  29  64 NW14      30.35R WCI  32
SULPHUR SPRNGS CLEAR     44  30  59 N14G21    30.38R WCI  37
MOUNT PLEASANT CLEAR     43  29  58 NW9       30.35R WCI  37
GILMER           N/A     44  30  58 NW9       30.33R WCI  39
MINEOLA        CLEAR     43  30  61 N10       30.35R WCI  37
TYLER          CLEAR     44  29  55 N13       30.33R WCI  38
LONGVIEW       CLEAR     46  32  58 NW9       30.31R
MARSHALL       CLEAR     45  29  53 N12       30.32R WCI  39
ATHENS         CLEAR     43  28  56 N8        30.34R WCI  38
PALESTINE      CLEAR     45  30  55 NW8       30.35R
JACKSONVILLE   CLEAR     46  30  54 N6        30.33R
HENDERSON      CLEAR     46  30  53 N6        30.33R
CENTER         SUNNY     44  27  50 NW6       30.30R
NACOGDOCHES    CLEAR     40  30  67 CALM      30.30R
LUFKIN         CLEAR     45  30  55 NW5       30.30R
$$

SUPPLEMENTAL OBSERVATIONS (NWS FORT WORTH AREA)

CITY           SKY/WX    TMP DP  RH WIND       PRES   REMARKS
DENISON DAM      N/A     43  32  65 N20         N/A  WCI  34
CADDO GRASSLND   N/A     39  27  60 N5          N/A  WCI  36
PAT MAYSE LAKE   N/A     37  27  65 NW3         N/A
GREENVILLE       N/A     43  30  61 N10         N/A  WCI  37
CEDAR HILL       N/A     45  30  57 VRB9G20     N/A  WCI  40
POSSUM KINGDOM   N/A     39  28  65 NW7         N/A  WCI  34
GRANBURY         N/A     41  27  56 W5          N/A  WCI  38
MCGREGOR         N/A     45  27  49 N8          N/A
TEMPLE           N/A     45  25  45 N13         N/A  WCI  38
ATHENS           N/A     46  30  53 N8          N/A
$$

SUPPLEMENTAL OBSERVATIONS (NWS NORMAN AREA)

CITY           SKY/WX    TMP DP  RH WIND       PRES   REMARKS
GOODLETT         N/A     33  19  57 NW10      30.47S WCI  25
ODELL            N/A     29  22  76 W5        30.48S WCI  24
CROWELL          N/A     35  21  56 NW9       30.49R WCI  28
KNOX CITY        N/A     36  19  50 N5        30.49R WCI  32
SEYMOUR          N/A     37  25  60 NW9       30.47S WCI  31
MILLERS CREEK    N/A     34  19  55 NW7         N/A  WCI  28
$$

SUPPLEMENTAL OBSERVATIONS (NWS SAN ANGELO AREA)

CITY           SKY/WX    TMP DP  RH WIND       PRES   REMARKS
WEINERT          N/A     35  20  53 N5        30.49R WCI  31
HASKELL          N/A     34  18  51 NW5       30.48R WCI  30
THROCKMORTON     N/A     37  27  67 NW9       30.48R WCI  30
STAMFORD         N/A     34  19  55 NW6       30.48S WCI  29
CLYDE            N/A     33  20  59 NW5       30.47R WCI  28
HAMBY            N/A     36  21  55 N5          N/A  WCI  32
IVIE RESERVOIR   N/A     43  28  56 N5          N/A
COLORADO BEND    N/A     43  25  49 N5          N/A
$$

SUPPLEMENTAL OBSERVATIONS (NWS SHREVEPORT AREA)

CITY           SKY/WX    TMP DP  RH WIND       PRES   REMARKS
CLARKSVILLE      N/A     43  28  56 NW9         N/A  WCI  37
TEXARKANA        N/A     45  32  61 NW3         N/A
LINDEN           N/A     45  30  57 NW7         N/A
CADDO LAKE       N/A     43  30  61 NW3         N/A
GILMER           N/A     45  30  57 N10         N/A  WCI  39
HENDERSON        N/A     46  28  49 N9          N/A
LUFKIN           N/A     46  30  53 MISG        N/A
N SABINE NF      N/A     39  34  81 MISG        N/A
S SABINE NF      N/A     46  32  57 SW3         N/A
$$

SUPPLEMENTAL OBSERVATIONS ARE A COLLECTION OF AUTOMATED INSTRUMENTS
THAT ARE MAINTAINED BY A VARIETY OF FEDERAL AND STATE AGENCIES.
CERTAIN ELEMENTS...SUCH AS HUMIDITY VALUES AND SUSTAINED WIND
SPEEDS...MAY BE APPROXIMATED.





USA.gov is the U.S. government's official web portal to all federal, state and local government web resources and services.